Year,Month,Day,Hour,Minute,Value (Times are PST for windgust in km/hr)
2014,11,06,00,00,1.60
2014,11,06,00,02,3.20
2014,11,06,00,03,3.20
2014,11,06,00,04,3.20
2014,11,06,00,09,1.60
2014,11,06,00,10,1.60
2014,11,06,00,11,1.60
2014,11,06,00,35,1.60
2014,11,06,00,36,4.80
2014,11,06,00,37,4.80
2014,11,06,00,38,3.20
2014,11,06,00,39,3.20
2014,11,06,00,40,1.60
2014,11,06,00,49,1.60
2014,11,06,00,53,1.60
2014,11,06,00,57,1.60
2014,11,06,00,59,1.60
2014,11,06,01,01,1.60
2014,11,06,01,04,3.20
2014,11,06,01,11,1.60
2014,11,06,01,12,6.40
2014,11,06,01,13,4.80
2014,11,06,01,14,8.10
2014,11,06,01,15,4.80
2014,11,06,01,16,6.40
2014,11,06,01,17,6.40
2014,11,06,01,18,8.10
2014,11,06,01,19,4.80
2014,11,06,01,20,3.20
2014,11,06,01,22,1.60
2014,11,06,01,24,1.60
2014,11,06,01,26,4.80
2014,11,06,01,28,3.20
2014,11,06,01,29,1.60
2014,11,06,01,30,3.20
2014,11,06,01,37,1.60
2014,11,06,01,39,3.20
2014,11,06,01,48,1.60
2014,11,06,01,52,3.20
2014,11,06,01,53,3.20
2014,11,06,01,56,1.60
2014,11,06,01,57,4.80
2014,11,06,01,58,4.80
2014,11,06,02,04,1.60
2014,11,06,02,05,1.60
2014,11,06,02,07,6.40
2014,11,06,02,08,6.40
2014,11,06,02,09,1.60
2014,11,06,02,10,6.40
2014,11,06,02,11,6.40
2014,11,06,02,13,1.60
2014,11,06,02,16,3.20
2014,11,06,02,17,6.40
2014,11,06,02,29,1.60
2014,11,06,02,39,1.60
2014,11,06,02,41,3.20
2014,11,06,02,42,3.20
2014,11,06,02,43,1.60
2014,11,06,02,48,1.60
2014,11,06,02,50,3.20
2014,11,06,02,51,3.20
2014,11,06,03,01,1.60
2014,11,06,03,16,1.60
2014,11,06,03,17,1.60
2014,11,06,03,21,1.60
2014,11,06,03,36,1.60
2014,11,06,03,37,1.60
2014,11,06,03,59,1.60
2014,11,06,04,12,3.20
2014,11,06,04,13,1.60
2014,11,06,04,21,4.80
2014,11,06,04,22,3.20
2014,11,06,04,23,1.60
2014,11,06,04,24,1.60
2014,11,06,04,25,3.20
2014,11,06,04,26,1.60
2014,11,06,04,47,4.80
2014,11,06,04,48,4.80
2014,11,06,04,56,1.60
2014,11,06,04,57,6.40
2014,11,06,04,58,4.80
2014,11,06,05,00,4.80
2014,11,06,05,01,4.80
2014,11,06,05,02,4.80
2014,11,06,05,03,4.80
2014,11,06,05,04,3.20
2014,11,06,05,05,8.10
2014,11,06,05,06,6.40
2014,11,06,05,07,8.10
2014,11,06,05,08,1.60
2014,11,06,05,11,1.60
2014,11,06,05,12,6.40
2014,11,06,05,13,6.40
2014,11,06,05,16,1.60
2014,11,06,05,17,4.80
2014,11,06,05,18,4.80
2014,11,06,05,19,4.80
2014,11,06,05,20,1.60
2014,11,06,05,27,1.60
2014,11,06,05,28,3.20
2014,11,06,05,29,1.60
2014,11,06,05,31,1.60
2014,11,06,05,34,3.20
2014,11,06,05,37,1.60
2014,11,06,05,38,8.10
2014,11,06,05,39,3.20
2014,11,06,05,42,4.80
2014,11,06,05,43,6.40
2014,11,06,05,46,3.20
2014,11,06,05,47,3.20
2014,11,06,05,52,3.20
2014,11,06,05,53,4.80
2014,11,06,05,54,1.60
2014,11,06,05,55,4.80
2014,11,06,05,56,1.60
2014,11,06,05,57,1.60
2014,11,06,05,59,4.80
2014,11,06,06,00,6.40
2014,11,06,06,01,9.60
2014,11,06,06,02,6.40
2014,11,06,06,03,4.80
2014,11,06,06,04,9.60
2014,11,06,06,05,11.30
2014,11,06,06,06,4.80
2014,11,06,06,07,1.60
2014,11,06,06,08,4.80
2014,11,06,06,10,1.60
2014,11,06,06,11,3.20
2014,11,06,06,12,1.60
2014,11,06,06,14,1.60
2014,11,06,06,21,1.60
2014,11,06,06,25,1.60
2014,11,06,06,27,1.60
2014,11,06,06,28,3.20
2014,11,06,06,29,3.20
2014,11,06,06,30,6.40
2014,11,06,06,31,6.40
2014,11,06,06,32,1.60
2014,11,06,06,48,1.60
2014,11,06,06,49,6.40
2014,11,06,06,50,4.80
2014,11,06,06,51,6.40
2014,11,06,06,52,6.40
2014,11,06,06,53,4.80
2014,11,06,06,54,3.20
2014,11,06,06,55,3.20
2014,11,06,06,59,1.60
2014,11,06,07,00,1.60
2014,11,06,07,01,4.80
2014,11,06,07,02,4.80
2014,11,06,07,03,1.60
2014,11,06,07,05,6.40
2014,11,06,07,06,4.80
2014,11,06,07,07,4.80
2014,11,06,07,13,1.60
2014,11,06,07,14,4.80
2014,11,06,07,15,3.20
2014,11,06,07,16,8.10
2014,11,06,07,17,8.10
2014,11,06,07,18,6.40
2014,11,06,07,23,1.60
2014,11,06,07,33,6.40
2014,11,06,07,34,8.10
2014,11,06,07,35,4.80
2014,11,06,07,36,6.40
2014,11,06,07,37,3.20
2014,11,06,07,38,4.80
2014,11,06,07,39,4.80
2014,11,06,07,40,3.20
2014,11,06,07,41,8.10
2014,11,06,07,42,8.10
2014,11,06,07,43,4.80
2014,11,06,07,44,6.40
2014,11,06,07,45,8.10
2014,11,06,07,46,9.60
2014,11,06,07,47,8.10
2014,11,06,07,48,4.80
2014,11,06,07,49,3.20
2014,11,06,07,50,6.40
2014,11,06,07,51,9.60
2014,11,06,07,52,6.40
2014,11,06,07,53,3.20
2014,11,06,07,54,4.80
2014,11,06,07,55,6.40
2014,11,06,07,56,1.60
2014,11,06,07,57,1.60
2014,11,06,07,58,3.20
2014,11,06,07,59,4.80
2014,11,06,08,01,1.60
2014,11,06,08,05,8.10
2014,11,06,08,06,6.40
2014,11,06,08,07,4.80
2014,11,06,08,08,4.80
2014,11,06,08,10,4.80
2014,11,06,08,11,3.20
2014,11,06,08,14,1.60
2014,11,06,08,20,1.60
2014,11,06,08,38,4.80
2014,11,06,08,39,4.80
2014,11,06,08,41,3.20
2014,11,06,08,50,4.80
2014,11,06,08,51,3.20
2014,11,06,08,59,1.60
2014,11,06,09,15,1.60
2014,11,06,09,21,4.80
2014,11,06,09,23,1.60
2014,11,06,09,31,1.60
2014,11,06,09,36,3.20
2014,11,06,09,37,6.40
2014,11,06,09,39,3.20
2014,11,06,09,40,6.40
2014,11,06,09,41,8.10
2014,11,06,09,42,6.40
2014,11,06,09,43,6.40
2014,11,06,09,44,4.80
2014,11,06,09,45,6.40
2014,11,06,09,46,8.10
2014,11,06,09,47,8.10
2014,11,06,09,48,6.40
2014,11,06,09,49,8.10
2014,11,06,09,50,8.10
2014,11,06,09,51,4.80
2014,11,06,09,52,8.10
2014,11,06,09,53,8.10
2014,11,06,09,54,6.40
2014,11,06,09,55,9.60
2014,11,06,09,56,6.40
2014,11,06,09,57,9.60
2014,11,06,09,58,9.60
2014,11,06,09,59,6.40
2014,11,06,10,00,4.80
2014,11,06,10,01,8.10
2014,11,06,10,02,8.10
2014,11,06,10,03,11.30
2014,11,06,10,04,9.60
2014,11,06,10,05,6.40
2014,11,06,10,06,6.40
2014,11,06,10,07,8.10
2014,11,06,10,08,8.10
2014,11,06,10,09,6.40
2014,11,06,10,10,11.30
2014,11,06,10,11,12.90
2014,11,06,10,12,11.30
2014,11,06,10,13,8.10
2014,11,06,10,14,11.30
2014,11,06,10,15,11.30
2014,11,06,10,16,8.10
2014,11,06,10,17,12.90
2014,11,06,10,18,9.60
2014,11,06,10,19,12.90
2014,11,06,10,20,9.60
2014,11,06,10,21,4.80
2014,11,06,10,22,11.30
2014,11,06,10,23,17.70
2014,11,06,10,24,17.70
2014,11,06,10,25,20.90
2014,11,06,10,26,17.70
2014,11,06,10,27,17.70
2014,11,06,10,28,24.20
2014,11,06,10,29,19.30
2014,11,06,10,30,27.40
2014,11,06,10,31,20.90
2014,11,06,10,32,29.00
2014,11,06,10,33,19.30
2014,11,06,10,34,19.30
2014,11,06,10,35,19.30
2014,11,06,10,36,14.50
2014,11,06,10,37,11.30
2014,11,06,10,38,17.70
2014,11,06,10,39,16.10
2014,11,06,10,40,16.10
2014,11,06,10,41,16.10
2014,11,06,10,42,16.10
2014,11,06,10,43,25.70
2014,11,06,10,44,24.20
2014,11,06,10,45,27.40
2014,11,06,10,46,17.70
2014,11,06,10,47,27.40
2014,11,06,10,48,29.00
2014,11,06,10,49,24.20
2014,11,06,10,50,24.20
2014,11,06,10,51,20.90
2014,11,06,10,52,22.50
2014,11,06,10,53,19.30
2014,11,06,10,54,32.20
2014,11,06,10,55,25.70
2014,11,06,10,56,35.40
2014,11,06,10,57,25.70
2014,11,06,10,58,25.70
2014,11,06,10,59,30.60
2014,11,06,11,00,20.90
2014,11,06,11,01,32.20
2014,11,06,11,02,24.20
2014,11,06,11,03,29.00
2014,11,06,11,04,27.40
2014,11,06,11,05,19.30
2014,11,06,11,06,25.70
2014,11,06,11,07,27.40
2014,11,06,11,08,27.40
2014,11,06,11,09,27.40
2014,11,06,11,10,19.30
2014,11,06,11,11,24.20
2014,11,06,11,12,25.70
2014,11,06,11,13,25.70
2014,11,06,11,14,24.20
2014,11,06,11,15,25.70
2014,11,06,11,16,25.70
2014,11,06,11,17,29.00
2014,11,06,11,18,19.30
2014,11,06,11,19,30.60
2014,11,06,11,20,20.90
2014,11,06,11,21,24.20
2014,11,06,11,22,24.20
2014,11,06,11,23,19.30
2014,11,06,11,24,25.70
2014,11,06,11,25,19.30
2014,11,06,11,26,20.90
2014,11,06,11,27,33.80
2014,11,06,11,28,20.90
2014,11,06,11,29,25.70
2014,11,06,11,30,24.20
2014,11,06,11,31,25.70
2014,11,06,11,32,20.90
2014,11,06,11,33,17.70
2014,11,06,11,34,29.00
2014,11,06,11,35,20.90
2014,11,06,11,36,32.20
2014,11,06,11,37,33.80
2014,11,06,11,38,29.00
2014,11,06,11,39,24.20
2014,11,06,11,40,29.00
2014,11,06,11,41,20.90
2014,11,06,11,42,22.50
2014,11,06,11,43,30.60
2014,11,06,11,44,22.50
2014,11,06,11,45,17.70
2014,11,06,11,46,22.50
2014,11,06,11,47,29.00
2014,11,06,11,48,24.20
2014,11,06,11,49,29.00
2014,11,06,11,50,24.20
2014,11,06,11,51,20.90
2014,11,06,11,52,25.70
2014,11,06,11,53,22.50
2014,11,06,11,54,20.90
2014,11,06,11,55,20.90
2014,11,06,11,56,20.90
2014,11,06,11,57,27.40
2014,11,06,11,58,29.00
2014,11,06,11,59,19.30
2014,11,06,12,00,29.00
2014,11,06,12,01,29.00
2014,11,06,12,02,25.70
2014,11,06,12,03,29.00
2014,11,06,12,04,30.60
2014,11,06,12,05,27.40
2014,11,06,12,06,19.30
2014,11,06,12,07,27.40
2014,11,06,12,08,29.00
2014,11,06,12,09,32.20
2014,11,06,12,10,29.00
2014,11,06,12,11,41.80
2014,11,06,12,12,35.40
2014,11,06,12,13,24.20
2014,11,06,12,16,32.20
2014,11,06,12,17,49.90
2014,11,06,12,18,30.60
2014,11,06,12,19,20.90
2014,11,06,12,20,37.00
2014,11,06,12,21,35.40
2014,11,06,12,22,40.20
2014,11,06,12,23,33.80
2014,11,06,12,24,32.20
2014,11,06,12,25,43.50
2014,11,06,12,26,46.70
2014,11,06,12,27,43.50
2014,11,06,12,28,45.10
2014,11,06,12,29,45.10
2014,11,06,12,30,41.80
2014,11,06,12,31,30.60
2014,11,06,12,32,35.40
2014,11,06,12,33,46.70
2014,11,06,12,34,33.80
2014,11,06,12,35,54.70
2014,11,06,12,36,48.30
2014,11,06,12,37,35.40
2014,11,06,12,38,41.80
2014,11,06,12,39,43.50
2014,11,06,12,40,37.00
2014,11,06,12,41,38.60
2014,11,06,12,42,41.80
2014,11,06,12,43,48.30
2014,11,06,12,44,62.70
2014,11,06,12,45,49.90
2014,11,06,12,46,30.60
2014,11,06,12,47,49.90
2014,11,06,12,48,49.90
2014,11,06,12,49,45.10
2014,11,06,12,50,54.70
2014,11,06,12,51,40.20
2014,11,06,12,52,45.10
2014,11,06,12,53,41.80
2014,11,06,12,54,48.30
2014,11,06,12,55,43.50
2014,11,06,12,56,57.90
2014,11,06,12,57,38.60
2014,11,06,12,58,41.80
2014,11,06,12,59,54.70
2014,11,06,13,00,51.50
2014,11,06,13,01,45.10
2014,11,06,13,02,51.50
2014,11,06,13,03,48.30
2014,11,06,13,04,57.90
2014,11,06,13,05,48.30
2014,11,06,13,06,53.10
2014,11,06,13,07,59.50
2014,11,06,13,08,49.90
2014,11,06,13,09,49.90
2014,11,06,13,10,54.70
2014,11,06,13,11,49.90
2014,11,06,13,12,43.50
2014,11,06,13,13,45.10
2014,11,06,13,14,49.90
2014,11,06,13,15,45.10
2014,11,06,13,16,51.50
2014,11,06,13,17,43.50
2014,11,06,13,18,48.30
2014,11,06,13,19,57.90
2014,11,06,13,20,53.10
2014,11,06,13,21,45.10
2014,11,06,13,22,56.30
2014,11,06,13,23,49.90
2014,11,06,13,24,46.70
2014,11,06,13,25,48.30
2014,11,06,13,26,46.70
2014,11,06,13,27,54.70
2014,11,06,13,28,46.70
2014,11,06,13,29,49.90
2014,11,06,13,30,43.50
2014,11,06,13,31,56.30
2014,11,06,13,32,57.90
2014,11,06,13,33,46.70
2014,11,06,13,34,41.80
2014,11,06,13,35,43.50
2014,11,06,13,36,62.70
2014,11,06,13,37,49.90
2014,11,06,13,38,62.70
2014,11,06,13,39,64.40
2014,11,06,13,40,46.70
2014,11,06,13,41,45.10
2014,11,06,13,44,48.30
2014,11,06,13,45,41.80
2014,11,06,13,46,53.10
2014,11,06,13,47,54.70
2014,11,06,13,48,37.00
2014,11,06,13,49,45.10
2014,11,06,13,50,51.50
2014,11,06,13,51,45.10
2014,11,06,13,52,41.80
2014,11,06,13,55,29.00
2014,11,06,13,56,49.90
2014,11,06,13,57,48.30
2014,11,06,13,58,49.90
2014,11,06,13,59,33.80
2014,11,06,14,00,57.90
2014,11,06,14,01,48.30
2014,11,06,14,02,37.00
2014,11,06,14,03,62.70
2014,11,06,14,04,49.90
2014,11,06,14,05,40.20
2014,11,06,14,06,38.60
2014,11,06,14,07,40.20
2014,11,06,14,08,53.10
2014,11,06,14,09,62.70
2014,11,06,14,10,49.90
2014,11,06,14,11,46.70
2014,11,06,14,12,35.40
2014,11,06,14,13,30.60
2014,11,06,14,14,43.50
2014,11,06,14,15,41.80
2014,11,06,14,16,40.20
2014,11,06,14,17,35.40
2014,11,06,14,18,37.00
2014,11,06,14,19,32.20
2014,11,06,14,20,43.50
2014,11,06,14,21,46.70
2014,11,06,14,22,45.10
2014,11,06,14,23,43.50
2014,11,06,14,24,43.50
2014,11,06,14,25,40.20
2014,11,06,14,26,48.30
2014,11,06,14,27,72.40
2014,11,06,14,28,43.50
2014,11,06,14,29,51.50
2014,11,06,14,30,70.80
2014,11,06,14,31,38.60
2014,11,06,14,32,38.60
2014,11,06,14,33,56.30
2014,11,06,14,34,57.90
2014,11,06,14,35,41.80
2014,11,06,14,36,46.70
2014,11,06,14,37,56.30
2014,11,06,14,38,53.10
2014,11,06,14,39,41.80
2014,11,06,14,40,77.30
2014,11,06,14,41,54.70
2014,11,06,14,42,48.30
2014,11,06,14,43,38.60
2014,11,06,14,44,53.10
2014,11,06,14,45,49.90
2014,11,06,14,46,66.00
2014,11,06,14,47,66.00
2014,11,06,14,48,56.30
2014,11,06,14,49,45.10
2014,11,06,14,50,54.70
2014,11,06,14,51,51.50
2014,11,06,14,52,54.70
2014,11,06,14,53,41.80
2014,11,06,14,54,53.10
2014,11,06,14,55,57.90
2014,11,06,14,56,48.30
2014,11,06,14,57,48.30
2014,11,06,14,58,43.50
2014,11,06,14,59,38.60
2014,11,06,15,00,56.30
2014,11,06,15,01,66.00
2014,11,06,15,02,38.60
2014,11,06,15,03,57.90
2014,11,06,15,04,40.20
2014,11,06,15,05,51.50
2014,11,06,15,06,41.80
2014,11,06,15,07,30.60
2014,11,06,15,08,41.80
2014,11,06,15,09,40.20
2014,11,06,15,10,30.60
2014,11,06,15,11,40.20
2014,11,06,15,12,49.90
2014,11,06,15,13,38.60
2014,11,06,15,14,38.60
2014,11,06,15,15,38.60
2014,11,06,15,16,43.50
2014,11,06,15,17,35.40
2014,11,06,15,18,37.00
2014,11,06,15,19,45.10
2014,11,06,15,20,37.00
2014,11,06,15,21,30.60
2014,11,06,15,22,35.40
2014,11,06,15,23,41.80
2014,11,06,15,24,30.60
2014,11,06,15,25,24.20
2014,11,06,15,26,41.80
2014,11,06,15,27,35.40
2014,11,06,15,28,48.30
2014,11,06,15,29,46.70
2014,11,06,15,30,35.40
2014,11,06,15,31,29.00
2014,11,06,15,32,33.80
2014,11,06,15,33,29.00
2014,11,06,15,34,38.60
2014,11,06,15,35,40.20
2014,11,06,15,36,51.50
2014,11,06,15,37,33.80
2014,11,06,15,38,35.40
2014,11,06,15,39,37.00
2014,11,06,15,40,30.60
2014,11,06,15,41,30.60
2014,11,06,15,42,40.20
2014,11,06,15,43,41.80
2014,11,06,15,44,38.60
2014,11,06,15,45,29.00
2014,11,06,15,46,56.30
2014,11,06,15,47,54.70
2014,11,06,15,48,48.30
2014,11,06,15,49,46.70
2014,11,06,15,50,38.60
2014,11,06,15,51,54.70
2014,11,06,15,52,41.80
2014,11,06,15,53,45.10
2014,11,06,15,54,45.10
2014,11,06,15,55,35.40
2014,11,06,15,56,49.90
2014,11,06,15,57,41.80
2014,11,06,15,58,43.50
2014,11,06,15,59,45.10
2014,11,06,16,00,48.30
2014,11,06,16,01,38.60
2014,11,06,16,02,41.80
2014,11,06,16,03,46.70
2014,11,06,16,04,49.90
2014,11,06,16,05,35.40
2014,11,06,16,06,43.50
2014,11,06,16,07,33.80
2014,11,06,16,08,43.50
2014,11,06,16,09,35.40
2014,11,06,16,10,33.80
2014,11,06,16,11,29.00
2014,11,06,16,12,32.20
2014,11,06,16,13,38.60
2014,11,06,16,14,46.70
2014,11,06,16,15,38.60
2014,11,06,16,16,40.20
2014,11,06,16,17,33.80
2014,11,06,16,18,35.40
2014,11,06,16,19,29.00
2014,11,06,16,20,43.50
2014,11,06,16,21,40.20
2014,11,06,16,22,51.50
2014,11,06,16,23,43.50
2014,11,06,16,24,32.20
2014,11,06,16,25,30.60
2014,11,06,16,26,33.80
2014,11,06,16,27,30.60
2014,11,06,16,28,38.60
2014,11,06,16,29,37.00
2014,11,06,16,30,35.40
2014,11,06,16,31,32.20
2014,11,06,16,32,43.50
2014,11,06,16,33,35.40
2014,11,06,16,34,27.40
2014,11,06,16,35,35.40
2014,11,06,16,36,29.00
2014,11,06,16,37,37.00
2014,11,06,16,38,27.40
2014,11,06,16,39,25.70
2014,11,06,16,40,40.20
2014,11,06,16,41,41.80
2014,11,06,16,42,40.20
2014,11,06,16,43,30.60
2014,11,06,16,44,37.00
2014,11,06,16,45,30.60
2014,11,06,16,46,22.50
2014,11,06,16,47,29.00
2014,11,06,16,48,38.60
2014,11,06,16,49,35.40
2014,11,06,16,50,27.40
2014,11,06,16,51,22.50
2014,11,06,16,52,45.10
2014,11,06,16,53,37.00
2014,11,06,16,54,38.60
2014,11,06,16,55,38.60
2014,11,06,16,56,25.70
2014,11,06,16,57,27.40
2014,11,06,16,58,35.40
2014,11,06,16,59,32.20
2014,11,06,17,00,35.40
2014,11,06,17,01,33.80
2014,11,06,17,02,43.50
2014,11,06,17,03,35.40
2014,11,06,17,04,40.20
2014,11,06,17,05,33.80
2014,11,06,17,06,33.80
2014,11,06,17,07,51.50
2014,11,06,17,08,41.80
2014,11,06,17,09,40.20
2014,11,06,17,10,40.20
2014,11,06,17,11,51.50
2014,11,06,17,12,41.80
2014,11,06,17,13,41.80
2014,11,06,17,14,53.10
2014,11,06,17,15,45.10
2014,11,06,17,16,48.30
2014,11,06,17,17,35.40
2014,11,06,17,18,48.30
2014,11,06,17,19,53.10
2014,11,06,17,20,30.60
2014,11,06,17,21,37.00
2014,11,06,17,22,51.50
2014,11,06,17,23,37.00
2014,11,06,17,24,30.60
2014,11,06,17,25,38.60
2014,11,06,17,26,32.20
2014,11,06,17,27,41.80
2014,11,06,17,28,33.80
2014,11,06,17,29,35.40
2014,11,06,17,30,41.80
2014,11,06,17,31,27.40
2014,11,06,17,32,38.60
2014,11,06,17,33,37.00
2014,11,06,17,34,25.70
2014,11,06,17,35,32.20
2014,11,06,17,36,37.00
2014,11,06,17,37,33.80
2014,11,06,17,38,33.80
2014,11,06,17,39,33.80
2014,11,06,17,40,38.60
2014,11,06,17,41,40.20
2014,11,06,17,42,27.40
2014,11,06,17,43,29.00
2014,11,06,17,44,30.60
2014,11,06,17,45,30.60
2014,11,06,17,46,30.60
2014,11,06,17,47,33.80
2014,11,06,17,48,33.80
2014,11,06,17,49,41.80
2014,11,06,17,50,49.90
2014,11,06,17,51,32.20
2014,11,06,17,52,29.00
2014,11,06,17,53,38.60
2014,11,06,17,54,41.80
2014,11,06,17,55,41.80
2014,11,06,17,56,40.20
2014,11,06,17,57,30.60
2014,11,06,17,58,33.80
2014,11,06,17,59,32.20
2014,11,06,18,00,32.20
2014,11,06,18,01,32.20
2014,11,06,18,02,32.20
2014,11,06,18,03,32.20
2014,11,06,18,04,48.30
2014,11,06,18,05,51.50
2014,11,06,18,06,37.00
2014,11,06,18,07,40.20
2014,11,06,18,08,30.60
2014,11,06,18,09,37.00
2014,11,06,18,10,35.40
2014,11,06,18,11,43.50
2014,11,06,18,12,45.10
2014,11,06,18,13,41.80
2014,11,06,18,14,46.70
2014,11,06,18,15,38.60
2014,11,06,18,16,41.80
2014,11,06,18,17,38.60
2014,11,06,18,18,30.60
2014,11,06,18,19,32.20
2014,11,06,18,20,33.80
2014,11,06,18,21,37.00
2014,11,06,18,22,29.00
2014,11,06,18,23,24.20
2014,11,06,18,24,27.40
2014,11,06,18,25,37.00
2014,11,06,18,26,25.70
2014,11,06,18,27,24.20
2014,11,06,18,28,27.40
2014,11,06,18,29,32.20
2014,11,06,18,30,27.40
2014,11,06,18,31,25.70
2014,11,06,18,32,29.00
2014,11,06,18,33,33.80
2014,11,06,18,34,33.80
2014,11,06,18,35,41.80
2014,11,06,18,36,30.60
2014,11,06,18,37,46.70
2014,11,06,18,38,38.60
2014,11,06,18,39,35.40
2014,11,06,18,40,38.60
2014,11,06,18,41,40.20
2014,11,06,18,42,25.70
2014,11,06,18,43,33.80
2014,11,06,18,44,22.50
2014,11,06,18,45,25.70
2014,11,06,18,46,35.40
2014,11,06,18,47,27.40
2014,11,06,18,48,37.00
2014,11,06,18,49,33.80
2014,11,06,18,50,41.80
2014,11,06,18,51,35.40
2014,11,06,18,52,43.50
2014,11,06,18,53,48.30
2014,11,06,18,54,27.40
2014,11,06,18,55,32.20
2014,11,06,18,56,35.40
2014,11,06,18,57,33.80
2014,11,06,18,58,37.00
2014,11,06,18,59,25.70
2014,11,06,19,00,24.20
2014,11,06,19,01,37.00
2014,11,06,19,02,24.20
2014,11,06,19,03,29.00
2014,11,06,19,04,30.60
2014,11,06,19,05,27.40
2014,11,06,19,06,25.70
2014,11,06,19,07,17.70
2014,11,06,19,08,19.30
2014,11,06,19,09,27.40
2014,11,06,19,10,32.20
2014,11,06,19,11,20.90
2014,11,06,19,12,25.70
2014,11,06,19,13,30.60
2014,11,06,19,14,29.00
2014,11,06,19,15,30.60
2014,11,06,19,16,27.40
2014,11,06,19,17,29.00
2014,11,06,19,18,29.00
2014,11,06,19,19,29.00
2014,11,06,19,20,33.80
2014,11,06,19,21,32.20
2014,11,06,19,22,24.20
2014,11,06,19,23,29.00
2014,11,06,19,24,25.70
2014,11,06,19,25,24.20
2014,11,06,19,26,27.40
2014,11,06,19,27,30.60
2014,11,06,19,28,24.20
2014,11,06,19,29,29.00
2014,11,06,19,30,33.80
2014,11,06,19,31,33.80
2014,11,06,19,32,27.40
2014,11,06,19,33,25.70
2014,11,06,19,34,19.30
2014,11,06,19,35,20.90
2014,11,06,19,36,27.40
2014,11,06,19,37,49.90
2014,11,06,19,38,32.20
2014,11,06,19,39,32.20
2014,11,06,19,40,16.10
2014,11,06,19,41,20.90
2014,11,06,19,42,29.00
2014,11,06,19,43,16.10
2014,11,06,19,44,27.40
2014,11,06,19,45,29.00
2014,11,06,19,46,25.70
2014,11,06,19,47,19.30
2014,11,06,19,48,17.70
2014,11,06,19,49,22.50
2014,11,06,19,50,19.30
2014,11,06,19,51,24.20
2014,11,06,19,52,22.50
2014,11,06,19,53,22.50
2014,11,06,19,54,27.40
2014,11,06,19,55,16.10
2014,11,06,19,56,25.70
2014,11,06,19,57,30.60
2014,11,06,19,58,24.20
2014,11,06,19,59,24.20
2014,11,06,20,00,17.70
2014,11,06,20,01,30.60
2014,11,06,20,02,19.30
2014,11,06,20,03,25.70
2014,11,06,20,04,25.70
2014,11,06,20,05,27.40
2014,11,06,20,06,22.50
2014,11,06,20,07,29.00
2014,11,06,20,08,29.00
2014,11,06,20,09,32.20
2014,11,06,20,10,22.50
2014,11,06,20,11,25.70
2014,11,06,20,12,29.00
2014,11,06,20,13,25.70
2014,11,06,20,14,27.40
2014,11,06,20,15,33.80
2014,11,06,20,16,24.20
2014,11,06,20,17,19.30
2014,11,06,20,18,27.40
2014,11,06,20,19,29.00
2014,11,06,20,20,30.60
2014,11,06,20,21,32.20
2014,11,06,20,22,27.40
2014,11,06,20,23,24.20
2014,11,06,20,24,25.70
2014,11,06,20,25,29.00
2014,11,06,20,26,29.00
2014,11,06,20,27,32.20
2014,11,06,20,28,30.60
2014,11,06,20,29,33.80
2014,11,06,20,30,29.00
2014,11,06,20,31,32.20
2014,11,06,20,32,27.40
2014,11,06,20,33,29.00
2014,11,06,20,34,45.10
2014,11,06,20,35,35.40
2014,11,06,20,36,29.00
2014,11,06,20,37,29.00
2014,11,06,20,38,29.00
2014,11,06,20,39,24.20
2014,11,06,20,40,25.70
2014,11,06,20,41,20.90
2014,11,06,20,42,27.40
2014,11,06,20,43,25.70
2014,11,06,20,44,25.70
2014,11,06,20,45,32.20
2014,11,06,20,46,27.40
2014,11,06,20,47,29.00
2014,11,06,20,48,22.50
2014,11,06,20,49,24.20
2014,11,06,20,50,24.20
2014,11,06,20,51,19.30
2014,11,06,20,52,25.70
2014,11,06,20,53,29.00
2014,11,06,20,54,24.20
2014,11,06,20,55,22.50
2014,11,06,20,56,29.00
2014,11,06,20,57,24.20
2014,11,06,20,58,17.70
2014,11,06,20,59,30.60
2014,11,06,21,00,30.60
2014,11,06,21,01,27.40
2014,11,06,21,02,37.00
2014,11,06,21,03,35.40
2014,11,06,21,04,27.40
2014,11,06,21,05,32.20
2014,11,06,21,06,32.20
2014,11,06,21,07,33.80
2014,11,06,21,08,40.20
2014,11,06,21,09,35.40
2014,11,06,21,10,25.70
2014,11,06,21,11,30.60
2014,11,06,21,12,17.70
2014,11,06,21,13,27.40
2014,11,06,21,14,19.30
2014,11,06,21,15,25.70
2014,11,06,21,16,29.00
2014,11,06,21,17,32.20
2014,11,06,21,18,17.70
2014,11,06,21,19,20.90
2014,11,06,21,20,24.20
2014,11,06,21,21,19.30
2014,11,06,21,22,33.80
2014,11,06,21,23,29.00
2014,11,06,21,24,22.50
2014,11,06,21,25,25.70
2014,11,06,21,26,22.50
2014,11,06,21,27,14.50
2014,11,06,21,28,25.70
2014,11,06,21,29,20.90
2014,11,06,21,30,25.70
2014,11,06,21,31,17.70
2014,11,06,21,32,20.90
2014,11,06,21,33,27.40
2014,11,06,21,34,22.50
2014,11,06,21,35,24.20
2014,11,06,21,36,24.20
2014,11,06,21,37,27.40
2014,11,06,21,38,30.60
2014,11,06,21,39,25.70
2014,11,06,21,40,29.00
2014,11,06,21,41,25.70
2014,11,06,21,42,25.70
2014,11,06,21,43,24.20
2014,11,06,21,44,24.20
2014,11,06,21,45,20.90
2014,11,06,21,46,32.20
2014,11,06,21,47,29.00
2014,11,06,21,48,20.90
2014,11,06,21,49,19.30
2014,11,06,21,50,22.50
2014,11,06,21,51,20.90
2014,11,06,21,52,16.10
2014,11,06,21,53,22.50
2014,11,06,21,54,24.20
2014,11,06,21,55,17.70
2014,11,06,21,56,16.10
2014,11,06,21,57,19.30
2014,11,06,21,58,19.30
2014,11,06,21,59,14.50
2014,11,06,22,00,11.30
2014,11,06,22,01,12.90
2014,11,06,22,02,12.90
2014,11,06,22,03,16.10
2014,11,06,22,04,9.60
2014,11,06,22,05,22.50
2014,11,06,22,06,16.10
2014,11,06,22,07,24.20
2014,11,06,22,08,29.00
2014,11,06,22,09,14.50
2014,11,06,22,10,16.10
2014,11,06,22,11,14.50
2014,11,06,22,12,17.70
2014,11,06,22,13,20.90
2014,11,06,22,14,20.90
2014,11,06,22,15,14.50
2014,11,06,22,16,20.90
2014,11,06,22,17,22.50
2014,11,06,22,18,20.90
2014,11,06,22,19,19.30
2014,11,06,22,20,17.70
2014,11,06,22,21,27.40
2014,11,06,22,22,14.50
2014,11,06,22,23,19.30
2014,11,06,22,24,27.40
2014,11,06,22,25,16.10
2014,11,06,22,26,12.90
2014,11,06,22,27,17.70
2014,11,06,22,28,29.00
2014,11,06,22,29,22.50
2014,11,06,22,30,25.70
2014,11,06,22,31,22.50
2014,11,06,22,32,25.70
2014,11,06,22,33,24.20
2014,11,06,22,34,20.90
2014,11,06,22,35,22.50
2014,11,06,22,36,20.90
2014,11,06,22,37,25.70
2014,11,06,22,38,19.30
2014,11,06,22,39,16.10
2014,11,06,22,40,17.70
2014,11,06,22,41,24.20
2014,11,06,22,42,22.50
2014,11,06,22,43,24.20
2014,11,06,22,44,17.70
2014,11,06,22,45,27.40
2014,11,06,22,46,19.30
2014,11,06,22,47,14.50
2014,11,06,22,48,19.30
2014,11,06,22,49,12.90
2014,11,06,22,50,24.20
2014,11,06,22,51,19.30
2014,11,06,22,52,17.70
2014,11,06,22,53,29.00
2014,11,06,22,54,19.30
2014,11,06,22,55,20.90
2014,11,06,22,56,20.90
2014,11,06,22,57,20.90
2014,11,06,22,58,16.10
2014,11,06,22,59,17.70
2014,11,06,23,00,20.90
2014,11,06,23,01,16.10
2014,11,06,23,02,14.50
2014,11,06,23,03,12.90
2014,11,06,23,04,14.50
2014,11,06,23,05,12.90
2014,11,06,23,06,11.30
2014,11,06,23,07,16.10
2014,11,06,23,08,14.50
2014,11,06,23,09,17.70
2014,11,06,23,10,19.30
2014,11,06,23,11,12.90
2014,11,06,23,12,16.10
2014,11,06,23,13,20.90
2014,11,06,23,14,16.10
2014,11,06,23,15,22.50
2014,11,06,23,16,16.10
2014,11,06,23,17,12.90
2014,11,06,23,18,12.90
2014,11,06,23,19,4.80
2014,11,06,23,20,16.10
2014,11,06,23,21,12.90
2014,11,06,23,22,16.10
2014,11,06,23,23,12.90
2014,11,06,23,24,17.70
2014,11,06,23,25,9.60
2014,11,06,23,26,11.30
2014,11,06,23,27,16.10
2014,11,06,23,28,3.20
2014,11,06,23,29,4.80
2014,11,06,23,30,14.50
2014,11,06,23,31,14.50
2014,11,06,23,32,19.30
2014,11,06,23,33,11.30
2014,11,06,23,34,9.60
2014,11,06,23,35,11.30
2014,11,06,23,36,9.60
2014,11,06,23,37,9.60
2014,11,06,23,38,6.40
2014,11,06,23,39,8.10
2014,11,06,23,40,17.70
2014,11,06,23,41,12.90
2014,11,06,23,42,14.50
2014,11,06,23,43,20.90
2014,11,06,23,44,22.50
2014,11,06,23,45,11.30
2014,11,06,23,46,17.70